Location: Cuiry
(49.3858°N, 3.7708°E)
Time: 23:37:47
(UTC+00:00)

Cosmos 1452 Rocket - Pass Details

Date: 12 January 2026
Orbit: 762 x 771 km, 74.1° (Epoch: 7 February)

Event Time Altitude Azimuth Distance (km) Brightness Sun altitude
Rises 19:10:38 0° 214° (SSW) 3,223 7.2 -28.6°
Reaches altitude 10° 19:13:02 10° 218° (SW) 2,302 6.4 -29.0°
Maximum altitude 19:18:11 58° 297° (WNW) 893 3.9 -29.9°
Enters shadow 19:18:20 58° 305° (NW) 895 3.9 -29.9°
